Location: Buch
(50.1863°N, 11.0141°E)
Time: 21:38:33
(UTC+00:00)

CORIOLIS - Pass Details

Date: 18 January 2020
Orbit: 818 x 839 km, 98.7° (Epoch: 25 February)

Event Time Altitude Azimuth Distance (km) Brightness Sun altitude
Rises 05:58:47 0° 15° (NNE) 3,363 7.3 -10.7°
Reaches altitude 10° 06:01:09 10° 16° (NNE) 2,425 6.6 -10.3°
Maximum altitude 06:06:32 86° 106° (ESE) 829 4.2 -9.5°
Drops below altitude 10° 06:11:53 10° 195° (SSW) 2,411 6.7 -8.7°
Sets 06:14:13 0° 196° (SSW) 3,341 7.4 -8.4°
